Zurück zum Katalog

THOR BURNER 2 R/B

AktivSSO
NORAD 6788·ROCKET BODY·🇺🇸 United States

Gestartet Aug 17, 1973 von Vandenberg Space Force Base

Loading…

Nächste Überflüge (nächste 24 Stunden)

TLE

AktuellSource: Space-Track

Epoche: Sep 14, 2026, 13:42 UTC

1  6788U 73054B   26257.57107249  .00000048  00000-0  37431-4 0  9999
2  6788  98.6073 122.7592 0028017 157.2160 203.0271 14.26975021758228

Verfolge THOR BURNER 2 R/B in Echtzeit mit AllMySat

Download on the App Store